Showing default

QIANFAN-22, 61555

Orbit data source: Space-Track

QIANFAN-22, 61555 is a Chinese payload satellite in LEO that was launched on Tue, 15 Oct 2024 UTC via a CHANG ZHENG 6A launch vehicle from the Taiyaun Space Center, China (TSC). Payload-class satellites include a variety of spacecraft equipped with specific instruments for various scientific and technological missions. These include communications satellites like Starlink; space stations such as the ISS; scientific satellites like the Hubble; Earth observation satellites from companies like Planet Labs, Umbra, and HawkEye 360; GPS; miniature CubeSats for education and research; and military/defense satellites.

Loading next visibility...
Identifier
61555, 2024-185D
Orbit
LEO
Country
Flag of CNCN / PRC
Related business
Manufacturer
GESIH/SECM
Mission
Operational Commercial Communications
Bus & Motor
QIANFAN, Unknown motor
Mass
267 kg wet, ~267 kg dry
Launch date (UTC)
2024-10-15 (1 year ago)
Launch vehicle
CHANG ZHENG 6A
Launch site
Taiyaun Space Center, China (TSC)
Object type
Payload
Rocket body
Debris
Shape & HBR
Box + 1 Pan, 5.0 m
Radar Cross Section
13.200 m², Large (>1 m²)

Expand to show TLE details & history
Last TLE update: 16 hours ago

TLE from 16 hours ago
0 QIANFAN-22
1 61555U 24185D   26067.97002398  .00000338  00000-0  28079-3 0  9994
2 61555  88.9743  69.7799 0008652  92.3009 267.9153 13.86340951 80881
Epoch: 2026-03-08T23:16Z
TLE epoch observation values (Epoch: 2026-03-08T23:16:50.071Z)
Latitude
-0.00003°
Longitude
-86.09842°
Altitude
944.722 km
Speed
7.379 km/s
True Right ascension
04h 39m 07s
True Declination
0° 00' 00"
Sunlit
Object was in daylight at epoch
Visualization orbit readout
Latitude
Unknown
Longitude
Unknown
Altitude
Unknown
Speed
Unknown
Apparent Right ascension
Unknown
Apparent Declination
Unknown
Sunlit
N/A
Visualization observer readout
Local Sidereal Time
19:46:31
Azimuth
Unknown
Elevation
Unknown
Doppler factor
Unknown
Orbital elements
Apogee altitude
944.812 km
Perigee altitude
932.151 km
Semi-major axis
7,316.619 km
Eccentricity
0.00087
Inclination
88.9743°
RAAN
69.7799°
Arg. of periapsis
92.3009°
True anomaly
267.81622°
Mean anomaly
267.9153°
Eccentric anomaly
267.86576°
Mean motion
3.46799 °/min
Orbital period
103.81 mins
BSTAR
0.00028079
Loading maneuver chart data...
Computing Atmospheric mass density...
Loading historical data...
Loading historical data...
Loading historical data...
Loading historical data...
Loading historical data...
Loading historical data...
Loading historical data...

Documentation

Showing up to 5 results
|